OpenBCM V1.08-5-g2f4a (Linux)

Packet Radio Mailbox

IZ3LSV

[San Dona' di P. JN]

 Login: GUEST





  
LU9DCE > KEPS     20.02.18 18:13l 261 Lines 12972 Bytes #999 (0) @ WW
BID : 32375_LU9DCE
Read: GUEST
Subj: SAT TLE OF 20
Path: IZ3LSV<IR2UBX<EA2RCF<LU9DCE
Sent: 180220/1601Z @:LU9DCE.TOR.BA.ARG.SOAM #:32375 [TORTUGUITAS] FBB7.07
From: LU9DCE@LU9DCE.TOR.BA.ARG.SOAM
To  : KEPS@WW


            __    _  _  ___  ____   ___  ____    ____  ____  ____
           (  )  / )( \/ _ \(    \ / __)(  __)  (  _ \(  _ \/ ___)
           / (_/\) \/ (\__  )) D (( (__  ) _)    ) _ ( ) _ (\___ \
           \____/\____/(___/(____/ \___)(____)  (____/(____/(____/
               ESTACION DE PACKET RADIO - BUENOS AIRES (GF05OM)
                   BOLETINES INFORMATIVOS PROGRAMADOS (BIP)
                    LU9DCE@GMX.COM - RF 147070 @ 1200 BAUD
                           telnet lu9dce.dynu.com
             BBS port 6300 / NODE port 3694 / DXCLUSTER port 9000

+------------------------------------------------------------------------------+
OSCAR 7
1 07530U 74089B   18051.18596251 -.00000027  00000-0  11259-3 0  9996
2 07530 101.6715  20.3350 0011906 200.5560 230.0655 12.53631163979935
OSCAR 11 (UoSAT 2)
1 14781U 84021B   18051.54281934  .00000070  00000-0  14851-4 0  9997
2 14781  97.6654  92.6360 0009969 103.9357 256.2967 14.82981586827159
OSCAR 19 (LUSAT)
1 20442U 90005G   18050.90010178 -.00000001 +00000-0 +15851-4 0  9992
2 20442 098.6005 350.1802 0012534 132.6698 227.5544 14.32886938467032
KITSAT B
1 22825U 93061C   18050.88374085 -.00000003 +00000-0 +16814-4 0  9993
2 22825 098.8487 024.9622 0007959 335.8362 024.2445 14.30022103272806
POSAT 1
1 22826U 93061D   18050.92769185 -.00000002 +00000-0 +17030-4 0  9998
2 22826 098.8429 025.0592 0008310 324.5116 035.5512 14.30353011272743
RADIO ROSTO
1 23439U 94085A   18050.73557295 -.00000027 +00000-0 +44015-3 0  9991
2 23439 064.8160 178.7867 0161182 202.9720 263.5539 11.27566586953325
JAS 2
1 24278U 96046B   18051.17582968 -.00000008  00000-0  25273-4 0  9991
2 24278  98.5283 265.9786 0351168  54.6029 308.7383 13.53081560 62410
TECHSAT 1B
1 25397U 98043D   18050.87125593 -.00000006  00000-0  16267-4 0  9997
2 25397  98.6389 353.3237 0001755  40.9304 319.2006 14.23639941 19031
ISS (ZARYA)
1 25544U 98067A   18050.93401291 +.00002375 +00000-0 +43119-4 0  9992
2 25544 051.6421 243.2500 0003274 115.3290 350.1785 15.54118910100289
PCSAT
1 26931U 01043C   18050.68557979 -.00000009 +00000-0 +28503-4 0  9991
2 26931 067.0514 172.5986 0005868 281.9339 078.1104 14.30494329855677
SAUDISAT 1C
1 27607U 02058C   18050.61390995 +.00000005 +00000-0 +21385-4 0  9991
2 27607 064.5549 089.4052 0051206 356.5477 003.5264 14.75420799815480
CUTE-1
1 27844U 03031E   18050.95300750 +.00000042 +00000-0 +38519-4 0  9991
2 27844 098.6892 061.3265 0009631 357.4199 002.6928 14.22095188759490
CUBESAT XI 4
1 27848U 03031J   18050.95017864 +.00000026 +00000-0 +31844-4 0  9992
2 27848 098.6981 061.6811 0009734 007.6017 352.5306 14.21701684759378
MOZHAYETS 4
1 27939U 03042A   18051.51831203  .00000110  00000-0  28143-4 0  9991
2 27939  97.9704 193.7984 0013635 153.6572 281.4238 14.66658701769718
CUBESAT XI 5
1 28895U 05043F   18050.40841685 +.00000146 +00000-0 +36783-4 0  9996
2 28895 097.8906 206.7530 0018152 082.8808 277.4459 14.63510033656648
CUTE-1.7+APD II
1 32785U 08021C   18050.84581830 +.00000224 +00000-0 +29919-4 0  9999
2 32785 097.5529 068.5954 0014553 070.2001 290.0784 14.88063722531728
DELFI C3
1 32789U 08021G   18050.70135049 +.00001827 +00000-0 +13024-3 0  9994
2 32789 097.5280 108.4166 0011820 345.0604 015.0272 15.05758209534104
SEEDS
1 32791U 08021J   18051.12488011  .00000353  00000-0  41504-4 0  9992
2 32791  97.5448  73.9408 0014595  52.8049 307.4500 14.90470486532073
YUBELEINY
1 32953U 08025A   18050.85404677 +.00000016 +00000-0 +43631-4 0  9990
2 32953 082.4996 085.6544 0020380 105.5392 254.7939 12.43081794442190
PRISM (HITOMI)
1 33493U 09002B   18051.53120932  .00000939  00000-0  89107-4 0  9993
2 33493  98.1429 309.0773 0015192 348.6240  11.4655 14.96081118492906
KKS-1 (KISEKI)
1 33499U 09002H   18050.91342444 +.00000096 +00000-0 +22274-4 0  9990
2 33499 098.3491 228.9004 0008223 311.0095 049.0401 14.75295459487461
SWISSCUBE
1 35932U 09051B   18050.93428367 +.00000131 +00000-0 +40527-4 0  9990
2 35932 098.5261 199.3973 0007333 201.9805 158.1078 14.56122045446337
BEESAT
1 35933U 09051C   18050.97002172  .00000107  00000-0  35102-4 0  9993
2 35933  98.5302 200.9053 0005280 213.3204 146.7662 14.56230126446489
ITUPSAT 1
1 35935U 09051E   18050.95872846  .00000089  00000-0  31658-4 0  9997
2 35935  98.5414 201.1482 0007651 210.8401 149.2347 14.55411617446279
XIWANG-1 (HOPE-1)
1 36122U 09072B   18050.96480207 -.00000068 +00000-0 -67634-4 0  9998
2 36122 100.0835 071.0487 0007768 028.1390 332.0143 13.16343464393120
TISAT 1
1 36799U 10035E   18051.32536651  .00000510  00000-0  57987-4 0  9995
2 36799  98.0876 184.5842 0011488 227.7114 132.3130 14.90698052412747
JUGNU
1 37839U 11058B   18051.23772522  .00000306  00000-0  21477-4 0  9994
2 37839  19.9626  26.4053 0019072  38.3278  81.8454 14.12609620328818
SRMSAT
1 37841U 11058D   18050.38164132  .00000305  00000-0  22477-4 0  9994
2 37841  19.9727  78.3676 0011614 277.0731 202.4102 14.10598494328220
M-CUBED/EXP-1 PRIME
1 37855U 11061F   18050.94373073 +.00001990 +00000-0 +10941-3 0  9994
2 37855 101.7257 053.4744 0177687 069.1306 292.8829 15.04065595343551
HORYU 2
1 38340U 12025D   18050.96159015 +.00000173 +00000-0 +33477-4 0  9997
2 38340 098.3741 068.6119 0010798 219.2802 140.7623 14.75500612299411
STRAND 1
1 39090U 13009E   18051.18022994  .00000019  00000-0  21935-4 0  9998
2 39090  98.5322 259.0056 0008143 287.2243  72.8051 14.35011637261040
SOMP
1 39134U 13015E   18050.87835077 +.00001525 +00000-0 +82098-4 0  9993
2 39134 064.8637 146.2860 0024191 226.6441 133.2671 15.18820707266708
BEESAT 3
1 39135U 13015F   18050.90811218 +.00001270 +00000-0 +74569-4 0  9990
2 39135 064.8700 158.0449 0029838 247.9364 111.8592 15.16402648266473
BEESAT 2
1 39136U 13015G   18050.77111771 +.00001492 +00000-0 +87012-4 0  9996
2 39136 064.8699 160.9578 0029994 248.5838 111.2087 15.15880148266402
CUBEBUG 1
1 39153U 13018D   18051.23994916  .00000217  00000-0  35370-4 0  9994
2 39153  97.9786 147.1908 0016162 329.0804  30.9455 14.80341815260280
ZACUBE
1 39417U 13066B   18050.67954607 +.00000214 +00000-0 +33388-4 0  9994
2 39417 097.6010 085.5123 0059292 178.6354 181.5032 14.80876957229406
TRITON 1
1 39427U 13066M   18050.96610977 +.00000163 +00000-0 +34356-4 0  9995
2 39427 097.6381 054.6905 0112691 275.0228 083.8122 14.67612634227191
GOMX 1
1 39430U 13066Q   18050.96542356  .00000269  00000-0  58049-4 0  9996
2 39430  97.6860  36.3647 0151263 341.1490  18.4146 14.59025836226069
HUMSAT D
1 39433U 13066T   18051.12967698  .00000410  00000-0  45766-4 0  9998
2 39433  97.6202 111.5166 0032474 111.7138 248.7544 14.91751485230973
50 SAT
1 39436U 13066W   18050.90224094 +.00087241 +00000-0 +10781-2 0  9996
2 39436 097.7120 177.6575 0006435 263.1414 096.9110 15.59820944233786
CUBEBUG 2
1 39440U 13066AA  18051.10327881  .00000166  00000-0  30277-4 0  9997
2 39440  97.6092  73.2527 0079800 214.8872 144.7093 14.75613839228655
FUNCUBE 1
1 39444U 13066AE  18050.66911763 +.00000258 +00000-0 +38288-4 0  9991
2 39444 097.6023 086.8778 0058579 174.4985 185.6886 14.81642082228256
UWE-3
1 39446U 13066AG  18051.52966856  .00000180  00000-0  30752-4 0  9994
2 39446  97.6038  79.6260 0069982 195.0248 164.8886 14.78146933227888
SPROUT
1 39770U 14029E   18051.42240940  .00000605  00000-0  74211-4 0  9992
2 39770  97.8731 153.4981 0007972 225.1022 134.9547 14.86671899203011
UNISAT 6
1 40012U 14033C   18050.89465584 +.00000177 +00000-0 +34125-4 0  9995
2 40012 097.8257 291.3923 0057594 216.0524 143.6795 14.73765649197426
DUCHIFAT 1
1 40021U 14033M   18050.82566035 +.00000399 +00000-0 +47023-4 0  9998
2 40021 097.9178 329.3343 0012302 199.7511 160.3232 14.90200915199476
QB50P1
1 40025U 14033R   18051.19361550  .00000279  00000-0  35936-4 0  9995
2 40025  97.9088 326.8168 0011801 204.3003 155.7659 14.88638337199380
CHUBUSAT 1
1 40300U 14070C   18051.21576069  .00000726  00000-0  35320-4 0  9992
2 40300  97.3744 131.3746 0019173 317.2990  98.5186 15.21389804182492
NUDT-PHONESAT
1 40900U 15049B   18050.94444396 +.00002393 +00000-0 +11140-3 0  9996
2 40900 097.4433 060.5811 0015340 081.1537 279.1434 15.20799406134094
ZDPS 2A
1 40901U 15049C   18051.06045577  .00000943  00000-0  51199-4 0  9997
2 40901  97.4598  59.2502 0015492  85.5911 274.7092 15.16860395133902
ZDPS 2B
1 40902U 15049D   18051.08459061  .00000866  00000-0  47553-4 0  9990
2 40902  97.4488  57.4928 0015544  82.9201 277.3799 15.16667169133899
XW-2A
1 40903U 15049E   18051.49769083  .00002232  00000-0  57843-4 0  9996
2 40903  97.3984  85.1341 0016184  91.5135 268.7965 15.40019962135845
KAITUO 1A
1 40904U 15049F   18051.56982019  .00000392  00000-0  24503-4 0  9993
2 40904  97.4578  57.3466 0016764  81.6745  34.0370 15.14885536133847
OBJECT G
1 40905U 15049G   18051.55686821  .00000472  00000-0  29620-4 0  9999
2 40905  97.4573  55.6064 0017498  75.9630 284.3546 15.13861366133773
XW-2C
1 40906U 15049H   18051.55313485  .00000733  00000-0  42667-4 0  9999
2 40906  97.4594  57.2010 0016742  75.8908 284.4184 15.15021444133837
XW-2D
1 40907U 15049J   18051.51673656  .00000814  00000-0  46809-4 0  9997
2 40907  97.4567  56.8776 0016086  74.2347 286.0658 15.15159988133832
LILACSAT 2
1 40908U 15049K   18050.92244751 +.00000363 +00000-0 +23874-4 0  9998
2 40908 097.4674 055.8011 0017695 076.4559 283.8642 15.13409392133630
XW-2F
1 40910U 15049M   18050.96004472  .00001126  00000-0  61436-4 0  9993
2 40910  97.4574  57.4359 0016817  72.5791 287.7279 15.16267463133694
XW-2B
1 40911U 15049N   18051.06779284  .00000752  00000-0  43578-4 0  9997
2 40911  97.4604  56.9290 0016007  76.0967 284.2044 15.15107517133663
